Ft Lauderdale, FL

7:58 AM EDT on March 26, 2017 (GMT -0400)
Fort Lauderdale-Hollywood International

Weather History for KFLL - October, 2014

Change the Weather History Date:

Saturday, October 18, 2014

  Actual Average Record
Temperature  
Mean Temperature 77 °F 80 °F  
Max Temperature 85 °F 86 °F 90 °F (1936)
Min Temperature 68 °F 75 °F 56 °F (2009)
Degree Days  
Heating Degree Days 0 0  
Month to date heating degree days 0 0  
Since 1 July heating degree days 0 0  
Cooling Degree Days 12 15  
Month to date cooling degree days 309 298  
Year to date cooling degree days 4174 4010  
Growing Degree Days 26 (Base 50)    
Moisture  
Dew Point 64 °F    
Average Humidity 66    
Maximum Humidity 84    
Minimum Humidity 47    
Precipitation  
Precipitation 0.00 in 0.18 in 2.70 in (1953)
Month to date precipitation 1.45 4.65  
Year to date precipitation 55.42 54.31  
Snow  
Snow 0.00 in - - ()
Month to date snowfall 0.0  
Since 1 July snowfall 0.0  
Since 1 September snowfall 0.0  
Snow Depth 0.00 in    
Sea Level Pressure  
Sea Level Pressure 29.94 in    
Wind  
Wind Speed 6 mph (SE)    
Max Wind Speed 16 mph    
Max Gust Speed 20 mph    
Visibility 10 miles    
Events      
T = Trace of Precipitation, MM = Missing Value Source: NWS Daily Summary

Daily Weather History Graph

Daily Weather History Graph

Search for Another Location

Airport or City:

Trip Planner

Search our weather history database for the weather conditions in past years. The results will help you decide how hot, cold, wet, or windy it might be!

Date:

Astronomy

Oct. 18, 2014 Rise Set
Actual Time 7:21 AM EDT 6:49 PM EDT
Civil Twilight 6:57 AM EDT 7:13 PM EDT
Nautical Twilight 6:30 AM EDT 7:40 PM EDT
Astronomical Twilight 6:04 AM EDT 8:06 PM EDT
Moon 2:46 AM EDT (10/18) 3:44 PM EDT (10/18)
Length of Visible Light 12h 15m
Length of Day
11h 28m
Waning Crescent, 24% of the Moon is Illuminated
Oct 18
Waning Crescent
Oct 23
New
Oct 30
First Quarter
Nov 6
Full
Nov 14
Last Quarter

Hourly Weather History & Observations

Time (EDT) Temp. Heat Index Dew Point Humidity Pressure Visibility Wind Dir Wind Speed Gust Speed Precip Events Conditions
12:53 AM 72.0 °F - 63.0 °F 73% 29.95 in 10.0 mi Calm Calm - N/A   Clear
1:53 AM 70.0 °F - 62.1 °F 76% 29.95 in 10.0 mi NNW 3.5 mph - N/A   Clear
2:53 AM 69.1 °F - 62.1 °F 78% 29.94 in 10.0 mi NNW 4.6 mph - N/A   Clear
3:53 AM 69.1 °F - 62.1 °F 78% 29.93 in 10.0 mi North 3.5 mph - N/A   Clear
4:53 AM 69.1 °F - 63.0 °F 81% 29.93 in 10.0 mi North 4.6 mph - N/A   Clear
5:53 AM 69.1 °F - 64.0 °F 84% 29.94 in 10.0 mi North 4.6 mph - N/A   Clear
6:53 AM 70.0 °F - 64.0 °F 81% 29.95 in 10.0 mi NNW 3.5 mph - N/A   Clear
7:53 AM 71.1 °F - 64.9 °F 81% 29.96 in 10.0 mi Calm Calm - N/A   Partly Cloudy
8:53 AM 75.9 °F - 64.9 °F 69% 29.98 in 10.0 mi NNW 3.5 mph - N/A   Partly Cloudy
9:53 AM 80.1 °F 81.5 °F 63.0 °F 56% 29.99 in 10.0 mi NNW 4.6 mph - N/A   Partly Cloudy
10:53 AM 80.1 °F 81.2 °F 62.1 °F 54% 29.99 in 10.0 mi Calm Calm - N/A   Partly Cloudy
11:53 AM 82.0 °F 82.7 °F 61.0 °F 49% 29.98 in 10.0 mi SW 3.5 mph - N/A   Partly Cloudy
12:53 PM 82.9 °F 84.0 °F 63.0 °F 51% 29.95 in 10.0 mi ESE 8.1 mph - N/A   Partly Cloudy
1:53 PM 84.0 °F 84.9 °F 63.0 °F 49% 29.92 in 10.0 mi ESE 11.5 mph - N/A   Partly Cloudy
2:53 PM 84.0 °F 84.9 °F 63.0 °F 49% 29.91 in 10.0 mi SE 12.7 mph - N/A   Partly Cloudy
3:53 PM 82.9 °F 84.0 °F 63.0 °F 51% 29.90 in 10.0 mi ESE 11.5 mph - N/A   Scattered Clouds
4:53 PM 82.9 °F 84.0 °F 63.0 °F 51% 29.90 in 10.0 mi SE 10.4 mph - N/A   Partly Cloudy
5:53 PM 82.0 °F 83.4 °F 64.0 °F 54% 29.91 in 10.0 mi SE 8.1 mph - N/A   Partly Cloudy
6:53 PM 81.0 °F 82.2 °F 63.0 °F 54% 29.92 in 10.0 mi SE 6.9 mph - N/A   Partly Cloudy
7:53 PM 80.1 °F 81.9 °F 64.9 °F 60% 29.93 in 10.0 mi South 4.6 mph - N/A   Partly Cloudy
8:53 PM 79.0 °F - 64.9 °F 62% 29.94 in 10.0 mi SSE 4.6 mph - N/A   Clear
9:53 PM 78.1 °F - 66.0 °F 66% 29.96 in 10.0 mi South 4.6 mph - N/A   Partly Cloudy
10:53 PM 78.1 °F - 66.0 °F 66% 29.96 in 10.0 mi SW 5.8 mph - N/A   Partly Cloudy
11:53 PM 75.9 °F - 66.0 °F 71% 29.96 in 10.0 mi WSW 3.5 mph - N/A   Partly Cloudy